TimeEET,TemperatureF,Dew PointF,Humidity,Sea Level PressureIn,VisibilityMPH,Wind Direction,Wind SpeedMPH,Gust SpeedMPH,PrecipitationIn,Events,Conditions,WindDirDegrees,DateUTC
12:50 AM,10.4,6.8,85,30.24,4.3,ENE,4.6,-,N/A,,Mostly Cloudy,70,2013-01-16 22:50:00
1:50 AM,10.4,6.8,85,30.24,4.3,East,4.6,-,N/A,,Mostly Cloudy,80,2013-01-16 23:50:00
2:00 AM,10,10,100,,4,East,4.6,,,,Mist,80,2013-01-17 00:00:00
2:50 AM,12.2,6.8,79,30.24,4.3,East,4.6,-,N/A,,Mostly Cloudy,80,2013-01-17 00:50:00
3:50 AM,12.2,8.6,85,30.21,6.2,ENE,5.8,-,N/A,,Mostly Cloudy,60,2013-01-17 01:50:00
4:50 AM,12.2,8.6,85,30.21,6.2,East,2.3,-,N/A,,Mostly Cloudy,90,2013-01-17 02:50:00
5:50 AM,14.0,8.6,79,30.18,6.2,NE,6.9,-,N/A,,Mostly Cloudy,50,2013-01-17 03:50:00
6:50 AM,12.2,10.4,92,30.18,4.3,ESE,4.6,-,N/A,,Mostly Cloudy,120,2013-01-17 04:50:00
7:50 AM,15.8,10.4,79,30.18,3.7,ENE,4.6,-,N/A,,Mostly Cloudy,70,2013-01-17 05:50:00
8:00 AM,16,11,73,,4,ENE,4.6,,,,Mist,70,2013-01-17 06:00:00
8:50 AM,21.2,12.2,68,30.18,3.7,NE,4.6,-,N/A,,Haze,40,2013-01-17 06:50:00
9:50 AM,24.8,14.0,64,30.18,-9999.0,Variable,2.3,-,N/A,,Haze,0,2013-01-17 07:50:00
10:50 AM,24.8,15.8,69,30.18,2.8,Variable,2.3,-,N/A,,Haze,0,2013-01-17 08:50:00
11:50 AM,26.6,17.6,69,30.12,-9999.0,ENE,9.2,-,N/A,,Haze,60,2013-01-17 09:50:00
12:50 PM,32.0,17.6,55,30.09,3.7,NNW,5.8,-,N/A,,Haze,340,2013-01-17 10:50:00
1:50 PM,35.6,15.8,44,30.09,4.3,South,8.1,-,N/A,,Scattered Clouds,170,2013-01-17 11:50:00
2:00 PM,36,15,27,,4,South,8.1,,,,Haze,170,2013-01-17 12:00:00
2:50 PM,35.6,17.6,48,30.09,5.6,Variable,2.3,-,N/A,,Scattered Clouds,0,2013-01-17 12:50:00
3:50 PM,30.2,21.2,69,30.09,5.0,SSW,4.6,-,N/A,,Scattered Clouds,200,2013-01-17 13:50:00
4:50 PM,28.4,19.4,69,30.12,5.0,SSE,3.5,-,N/A,,Scattered Clouds,160,2013-01-17 14:50:00
5:50 PM,23.0,15.8,74,30.15,5.0,NE,6.9,-,N/A,,Scattered Clouds,40,2013-01-17 15:50:00
6:50 PM,19.4,14.0,80,30.12,4.3,NNE,11.5,-,N/A,,Scattered Clouds,30,2013-01-17 16:50:00
7:50 PM,23.0,15.8,74,30.15,5.0,ESE,4.6,-,N/A,,Scattered Clouds,110,2013-01-17 17:50:00
8:00 PM,23,16,64,,5,ESE,4.6,,,,Blowing Sand,110,2013-01-17 18:00:00
8:50 PM,19.4,14.0,80,30.15,5.0,Variable,1.2,-,N/A,,Scattered Clouds,0,2013-01-17 18:50:00
9:50 PM,19.4,15.8,86,30.15,5.0,ENE,3.5,-,N/A,,Scattered Clouds,60,2013-01-17 19:50:00
10:50 PM,17.6,14.0,86,30.15,5.0,SSE,3.5,-,N/A,,Scattered Clouds,150,2013-01-17 20:50:00
11:50 PM,21.2,15.8,80,30.15,5.0,East,4.6,-,N/A,,Scattered Clouds,90,2013-01-17 21:50:00